Corpus Christi, TX

11:13 AM CDT on September 19, 2017 (GMT -0500)
Corpus Christi International

Weather History for KCRP - August, 2012

Change the Weather History Date:

Monday, August 6, 2012

  Actual Average Record
Temperature  
Mean Temperature 86 °F 85 °F  
Max Temperature 98 °F 95 °F 100 °F (1940)
Min Temperature 73 °F 75 °F 70 °F (2002)
Degree Days  
Heating Degree Days 0 0  
Month to date heating degree days 0 0  
Since 1 June heating degree days 0 0  
Since 1 July heating degree days 0 0  
Cooling Degree Days 21 20  
Month to date cooling degree days 130 120  
Year to date cooling degree days 2630 2070  
Since 1 June cooling degree days 1397 1229  
Growing Degree Days 36 (Base 50)    
Moisture  
Dew Point 72 °F    
Average Humidity 66    
Maximum Humidity 91    
Minimum Humidity 40    
Precipitation  
Precipitation 0.01 in 0.06 in 5.13 in (1894)
Month to date precipitation 0.01 0.36  
Year to date precipitation 14.31 16.78  
Snow  
Snow 0.00 in - - ()
Month to date snowfall 0.0  
Since 1 June snowfall 0.0  
Since 1 July snowfall 0.0  
Snow Depth 0.00 in    
Sea Level Pressure  
Sea Level Pressure 30.03 in    
Wind  
Wind Speed 6 mph (ESE)    
Max Wind Speed 17 mph    
Max Gust Speed 28 mph    
Visibility 9 miles    
Events Fog    
T = Trace of Precipitation, MM = Missing Value Source: NWS Daily Summary

Daily Weather History Graph

Daily Weather History Graph

Search for Another Location

Airport or City:

Trip Planner

Search our weather history database for the weather conditions in past years. The results will help you decide how hot, cold, wet, or windy it might be!

Date:

Astronomy

Aug. 06, 2012 Rise Set
Actual Time 6:55 AM CDT 8:15 PM CDT
Civil Twilight 6:30 AM CDT 8:40 PM CDT
Nautical Twilight 6:01 AM CDT 9:09 PM CDT
Astronomical Twilight 5:30 AM CDT 9:40 PM CDT
Moon 10:59 PM CDT (8/6) 11:13 AM CDT (8/6)
Length of Visible Light 14h 09m
Length of Day
13h 19m
Waning Gibbous, 78% of the Moon is Illuminated
Aug 6
Waning Gibbous
Aug 9
Last Quarter
Aug 17
New
Aug 24
First Quarter
Aug 31
Full

Hourly Weather History & Observations

Time (CDT) Temp. Heat Index Dew Point Humidity Pressure Visibility Wind Dir Wind Speed Gust Speed Precip Events Conditions
12:51 AM 77.0 °F - 71.1 °F 82% 30.07 in 10.0 mi Calm Calm - N/A   Partly Cloudy
1:51 AM 78.1 °F - 71.1 °F 79% 30.06 in 10.0 mi Calm Calm - N/A   Partly Cloudy
2:51 AM 78.1 °F - 71.1 °F 79% 30.05 in 10.0 mi South 3.5 mph - N/A   Partly Cloudy
3:51 AM 75.9 °F - 69.1 °F 79% 30.05 in 10.0 mi Calm Calm - N/A   Partly Cloudy
4:51 AM 77.0 °F - 73.0 °F 88% 30.04 in 10.0 mi Calm Calm - N/A   Partly Cloudy
5:51 AM 75.0 °F - 71.1 °F 87% 30.03 in 10.0 mi Calm Calm - N/A   Partly Cloudy
6:44 AM 73.4 °F - 71.6 °F 94% 30.04 in 1.0 mi Calm Calm - N/A   Partly Cloudy
6:51 AM 73.0 °F - 70.0 °F 90% 30.04 in 1.0 mi NNW 4.6 mph - N/A Fog Partly Cloudy
7:13 AM 75.2 °F - 73.4 °F 94% 30.05 in 0.8 mi Calm Calm - N/A   Partly Cloudy
7:32 AM 75.2 °F - 73.4 °F 94% 30.06 in 4.0 mi NNE 3.5 mph - N/A   Partly Cloudy
7:51 AM 78.1 °F - 75.0 °F 90% 30.07 in 9.0 mi NNE 5.8 mph - N/A   Partly Cloudy
8:51 AM 84.9 °F 94.1 °F 75.9 °F 74% 30.07 in 9.0 mi Calm Calm - N/A   Partly Cloudy
9:51 AM 88.0 °F 96.5 °F 73.9 °F 63% 30.08 in 10.0 mi North 4.6 mph - N/A   Partly Cloudy
10:51 AM 89.1 °F 96.0 °F 72.0 °F 57% 30.07 in 10.0 mi WSW 4.6 mph - N/A   Scattered Clouds
11:51 AM 93.9 °F 100.8 °F 71.1 °F 47% 30.07 in 10.0 mi NE 6.9 mph - N/A   Scattered Clouds
12:51 PM 95.0 °F 100.7 °F 69.1 °F 43% 30.05 in 10.0 mi Calm Calm - N/A   Scattered Clouds
1:51 PM 97.0 °F 102.2 °F 68.0 °F 39% 30.03 in 10.0 mi East 9.2 mph - 0.01 in   Scattered Clouds
2:51 PM 96.1 °F 101.6 °F 69.1 °F 41% 30.01 in 10.0 mi ESE 8.1 mph 18.4 mph N/A   Scattered Clouds
3:51 PM 95.0 °F 102.5 °F 71.1 °F 46% 29.99 in 10.0 mi SE 12.7 mph - N/A   Scattered Clouds
4:51 PM 93.9 °F 100.8 °F 71.1 °F 47% 29.97 in 10.0 mi SE 12.7 mph 21.9 mph N/A   Scattered Clouds
5:51 PM 91.0 °F 95.6 °F 69.1 °F 48% 29.96 in 10.0 mi SE 12.7 mph 18.4 mph N/A   Scattered Clouds
6:51 PM 91.9 °F 98.4 °F 71.1 °F 50% 29.95 in 10.0 mi SE 11.5 mph - N/A   Partly Cloudy
7:51 PM 89.1 °F 96.0 °F 72.0 °F 57% 29.96 in 10.0 mi ESE 9.2 mph - N/A   Partly Cloudy
8:51 PM 86.0 °F 92.2 °F 72.0 °F 63% 29.98 in 10.0 mi SE 9.2 mph - N/A   Clear
9:51 PM 84.9 °F 93.3 °F 75.0 °F 72% 29.98 in 10.0 mi SSE 11.5 mph - N/A   Partly Cloudy
10:51 PM 82.9 °F 90.2 °F 75.0 °F 77% 29.99 in 10.0 mi SE 5.8 mph - N/A   Clear
11:51 PM 82.0 °F 87.9 °F 73.9 °F 76% 29.98 in 10.0 mi South 4.6 mph - N/A   Clear